Tracking 31028 objects as of 17-Jul-2025
HD Live streaming from Space Station
objects crossing your sky now

INSAT 3B

Track INSAT 3B now!
INSAT 3B is classified as:


NORAD ID: 26108
Int'l Code: 2000-016B
Perigee: 35,949.7 km
Apogee: 35,984.0 km
Inclination: 10.2 °
Period: 1,445.0 minutes
Semi major axis: 42337 km
RCS: 5.0119 m2 (large)
Launch date: March 21, 2000
Source: India (IND)
Launch site: FRENCH GUIANA (FRGUI)

Voice, data and fax transmissions.
Your satellite tracking list
Your tracking list is empty




NASA's NSSDC Master Catalog

Two Line Element Set (TLE):
1 26108U 00016B   25198.45226117  .00000104  00000-0  00000-0 0  9992
2 26108  10.1636  48.4540 0004060 196.3245  74.9731  0.99657424 48099
Source of the keplerian elements: AFSPC